カタログに戻る

INTELSAT 33E DEB

運用中GEO
NORAD 64409·DEBRIS· XX

打ち上げ Aug 24, 2016 から Guiana Space Centre

Loading…

TLE

最新Source: Space-Track

元期: Sep 13, 2026, 15:38 UTC

1 64409U 16053AP  26256.65149264  .00000080  00000-0  00000-0 0  9994
2 64409   1.7484  78.3384 0054397  83.1456 278.2988  0.99468454  6747

AllMySatでINTELSAT 33E DEBをリアルタイム追跡

Download on the App Store